Starlink 30956

operational
NORAD ID: 58481 Int'l Des: 2023-186 Owner: SPXS Country: US Constellation: starlink
LEOCIRCULAR

About Starlink 30956

Description loading...

Live Position

Loading 3D Globe...

Upcoming Passes

Altitude History

Altitude vs Time

uPlot chart will show altitude changes over time

Two-Line Element Set

1 58481U 23186J 26020.15598156 .00002275 00000-0 18335-3 0 9995
2 58481 43.0034 306.5007 0000765 259.5476 100.5281 15.02554039118831
Epoch: Jan 20, 2026 • Age: 26 hours

Current Status

Altitude 558.5 km
Velocity 7.59 km/s
Sub-Earth Point 19.03°N, 110.76°W
Launch Date Dec 3, 2023
Age 2.1 years
Type internet

Technical Details

Classification Payload
Mass 730.00 kg
Dry Mass 700.00 kg
Total Mass 730.00 kg
Length 0.30 m
Diameter 4.10 m
Span 29.00 m
Shape Box + pan
Manufacturer SPXS
Bus Type Starlink V2M
Phase Status In Orbit
Owner/State SPXS/US

Large Constellations

Loading constellations...